User: anonymous   Login
Location: Albany
(35.0000°S, 118.0000°E)
Time: 13:12:23
(UTC-04:00)
Language:

Cosmos 2227 Rocket - Orbit

View from above orbital plane
View from above orbital plane
View from above satellite
View from above satellite

Ground track
Ground track

The orbit data is extracted from the following two-line orbital elements,

1 22285U 92093B   15115.81621090 -.00000062  00000-0 -75370-5 0  9999
2 22285 071.0221 055.5586 0006386 250.0358 110.0077 14.14960953151728
Epoch (UTC): 25 April 2015 19:35:20
Eccentricity: 0.0006386
inclination: 71.0221°
perigee height: 838 km
apogee height: 847 km
right ascension of ascending node: 55.5586°
argument of perigee: 250.0358°
revolutions per day: 14.14960953
mean anomaly at epoch: 110.0077°
orbit number at epoch: 15172

The dashed part of the orbit path shows where the satellite is in the earth's shadow,  

DLR